Location: Bucquoy
(50.1391°N, 2.7097°E)
Time: 09:05:25
(UTC+00:00)

SL-24 R/B - Pass Details

Date: 06 May 2021
Orbit: 506 x 1001 km, 97.5° (Epoch: 21 June)

Event Time Altitude Azimuth Distance (km) Brightness Sun altitude
Rises 03:33:20 0° 156° (SSE) 2,598 7.1 -6.7°
Reaches altitude 10° 03:35:22 10° 152° (SSE) 1,723 6.3 -6.4°
Maximum altitude 03:38:58 60° 73° (ENE) 607 4.4 -6.0°
Drops below altitude 10° 03:42:50 10° 353° (N) 1,841 6.9 -5.4°
Sets 03:45:04 0° 350° (N) 2,798 7.8 -5.1°
